Home   Weather   Sandnessjøen   Past weeks

Flag for Norway Past Weather in Sandnessjøen, Norway — Yesterday and Last 2 Weeks

Now
36 °F

Scattered showers. Broken clouds.


Feels Like: 25 °F
Forecast: 36 / 42 °F
Wind: 17 mph from South

Location: Sandnessjoen / Stokka

Current Time: Jan 16, 2017 at 12:08:51 pm

Latest Report: Jan 16, 2017 at 11:20 am


Visibility: N/A

Pressure: 30.18 "Hg

Humidity: 81%

Dew Point: 30 °F

Location of SandnessjøenLocation

Past Weather in Sandnessjøen — Graph

°F

Sandnessjøen Temperature Yesterday

Maximum temperature yesterday: 39 °F (at 3:20 pm)
Minimum temperature yesterday: 32 °F (at 10:50 pm)
Average temperature yesterday: 36 °F

High & Low Weather Summary for the Past Weeks

 TemperatureHumidityPressure
High46 °F (Jan 10, 5:20 am)100% (Jan 9, 1:20 pm)30.39 "Hg (Jan 9, 1:20 pm)
Low16 °F (Jan 4, 2:20 pm)45% (Jan 4, 7:50 am)28.59 "Hg (Jan 12, 4:50 am)
Average33 °F75%29.49 "Hg
* Reported Jan 1 12:50 pm — Jan 16 10:50 am, Sandnessjøen, Weather by CustomWeather, © 2017

Note: Actual official high and low records may vary slightly from our data, if they occured in-between our weather recording intervals... More about our weather records

Advertising

Sandnessjøen Weather History for the Previous 24 Hours

Scroll right to see more
 ConditionsComfort  
Time TempWeatherWind HumidityBarometerVisibility
10:50 am
Mon, Jan 16
36 °FScattered showers. Broken clouds.17 mph81%30.18 "HgN/A
10:20 am36 °FPartly sunny.15 mph81%30.18 "HgN/A
9:50 am34 °FPassing clouds.18 mph87%30.18 "HgN/A
9:20 am34 °FLight snow. Partly cloudy.15 mph87%30.18 "Hg5 mi
8:50 am32 °FScattered showers. Partly cloudy.3 mph75%30.18 "HgN/A
8:20 am30 °FPassing clouds.6 mph80%30.18 "HgN/A
7:50 am28 °FClear.3 mph80%30.18 "Hg10 mi
7:20 am30 °FClear.8 mph86%30.18 "Hg10 mi
6:50 am28 °FClear.5 mph86%30.18 "Hg10 mi
6:20 am28 °FClear.3 mph86%30.18 "Hg10 mi
5:50 am30 °FClear.7 mph80%30.18 "Hg10 mi
5:20 am30 °FClear.3 mph86%30.18 "Hg10 mi
4:50 am30 °FClear.8 mph86%30.15 "Hg10 mi
10:50 pm
Sun, Jan 15
32 °FClear.7 mph75%30.07 "Hg10 mi
10:20 pm34 °FPassing clouds.8 mph70%30.07 "HgN/A
9:50 pm34 °FPassing clouds.7 mph70%30.04 "HgN/A
9:20 pm34 °FPassing clouds.7 mph70%30.04 "HgN/A
8:50 pm36 °FPassing clouds.8 mph70%30.01 "HgN/A
8:20 pm36 °FPassing clouds.9 mph70%29.98 "HgN/A
7:50 pm34 °FPassing clouds.6 mph75%29.98 "HgN/A
7:20 pm36 °FPassing clouds.10 mph81%29.95 "HgN/A
6:50 pm36 °FPassing clouds.12 mph81%29.92 "HgN/A
6:20 pm36 °FPassing clouds.13 mph81%29.89 "HgN/A
5:50 pm37 °FPassing clouds.14 mph70%29.89 "HgN/A
5:20 pm39 °FPassing clouds.12 mph56%29.86 "HgN/A
4:50 pm39 °FPassing clouds.14 mph56%29.83 "HgN/A
4:20 pm39 °FPassing clouds.13 mph61%29.83 "HgN/A
3:50 pm39 °FPassing clouds.13 mph65%29.80 "HgN/A
3:20 pm39 °FScattered showers. Partly cloudy.10 mph65%29.77 "HgN/A
2:50 pm37 °FScattered showers. Partly cloudy.12 mph81%29.77 "HgN/A
Weather by CustomWeather, © 2017

See weather overviewHow to use our weather pages